User: anonymous   Login
Location: NJAA Observatory
(40.6819°N, 74.8979°W)
Time: 00:24:47
(UTC-04:00)
Language:

Meteor 1-28 Rocket - Orbit

View from above orbital plane
View from above orbital plane
View from above satellite
View from above satellite

Ground track
Ground track

The orbit data is extracted from the following two-line orbital elements,

1 10114U 77057B   15087.51891057  .00003522  00000-0  19208-3 0  9995
2 10114 097.2384 299.3927 0013038 273.7741 086.2001 15.14918500 60578
Epoch (UTC): 28 March 2015 12:27:13
Eccentricity: 0.0013038
inclination: 97.2384°
perigee height: 512 km
apogee height: 530 km
right ascension of ascending node: 299.3927°
argument of perigee: 273.7741°
revolutions per day: 15.14918500
mean anomaly at epoch: 86.2001°
orbit number at epoch: 6057

The dashed part of the orbit path shows where the satellite is in the earth's shadow,  

DLR